Regional Weather Roundup
Issued by NWS Upton, NY

Current Version | Previous Version | Graphics & Text | Print | Product List | Glossary Off
Versions: 1 2 3 4 5 6 7 8 9 10 11 12 13 14 15 16 17 18 19 20 21 22 23 24 25 26 27 28 29 30 31 32 33 34 35 36 37 38 39 40 41 42 43 44 45 46 47

000
ASUS41 KOKX 121705
RWROKX

REGIONAL WEATHER ROUNDUP
NATIONAL WEATHER SERVICE NEW YORK NY
100 PM EDT SAT JUL 12 2014

NOTE: "FAIR" INDICATES FEW OR NO CLOUDS BELOW 12,000 FEET WITH NO
SIGNIFICANT WEATHER AND/OR OBSTRUCTIONS TO VISIBILITY.

NYZ071-072-176-178-NJZ106-104-121800-
NEW YORK CITY METRO AREA


CITY           SKY/WX    TMP DP  RH WIND       PRES   REMARKS
CENTRAL PARK   MOSUNNY   84  61  45 CALM      30.22F
LAGUARDIA APRT PTSUNNY   86  60  41 S13       30.19F
KENNEDY INTL   MOSUNNY   80  64  58 S10       30.22F
NEWARK/LIBERTY MOSUNNY   84  63  49 SE7       30.19F
BRNX BOT. GARD   N/A     82  63  51 N6        30.21F
TETERBORO      MOSUNNY   86  59  39 SE8       30.18F
$$

NYZ177-179-078>081-121800-
LONG ISLAND NEW YORK

CITY           SKY/WX    TMP DP  RH WIND       PRES   REMARKS
FARMINGDALE    MOSUNNY   79  62  56 S9        30.22F
ISLIP          NOT AVBL
SHIRLEY        MOSUNNY   82  57  42 SW10      30.22F
WESTHAMPTON    SUNNY     78  65  63 S10       30.24F
MONTAUK POINT    N/A     78  65  63 VRB5      30.24S
$$

NYZ052-065-067-121800-
HUDSON VALLEY

CITY           SKY/WX    TMP DP  RH WIND       PRES   REMARKS
WHITE PLAINS   MOSUNNY   83  62  49 S7        30.20F
NEWBURGH       MOSUNNY   82  68  61 W5        30.21F
MONTGOMERY     MOSUNNY   84  66  54 SW9       30.18F
POUGHKEEPSIE   MOSUNNY   84  65  52 VRB5      30.17F
ALBANY         MOSUNNY   83  64  52 VRB5      30.16F
$$

NJZ001-105-106-008-010-013-015-019>022-104-121800-
NEW JERSEY

CITY           SKY/WX    TMP DP  RH WIND       PRES   REMARKS
NEWARK/LIBERTY MOSUNNY   84  63  49 SE7       30.19F
TETERBORO      MOSUNNY   86  59  39 SE8       30.18F
CALDWELL       SUNNY     83  63  50 VRB3      30.20F
MORRISTOWN     PTSUNNY   84  64  51 SW6       30.20F
SOMERVILLE     MOSUNNY   85  65  51 VRB7      30.18F
LINDEN         FAIR      86  59  39 W5        30.22S
SUSSEX         MOSUNNY   84  66  54 VRB7      30.19F
ANDOVER          N/A     82  67  60 SW8       30.21F
TRENTON        MOSUNNY   84  62  47 CALM      30.19F
MILLVILLE      MOSUNNY   83  69  62 SE8       30.21F
ATLANTIC CITY  SUNNY     80  66  62 SE9       30.23S
WRIGHTSTOWN    NOT AVBL
TOMS RIVER     PTSUNNY   82  64  54 SE10G17   30.22R
BELMAR         MOSUNNY   81  64  57 SE10G16   30.22S
$$

PAZ047>061-062-071-121800-
EASTERN PENNSYLVANIA

CITY           SKY/WX    TMP DP  RH WIND       PRES   REMARKS
PHILADELPHIA   MOSUNNY   87  62  43 SE6       30.20F
ALLENTOWN      PTSUNNY   84  63  49 SW9       30.20F
SCRANTON       PTSUNNY   83  66  56 S5        30.19F
$$

CTZ002-004>006-009-010-012-RIZ004-006-007-MAZ004-011-015-121800-
SOUTHERN NEW ENGLAND
 IN CT

CITY           SKY/WX    TMP DP  RH WIND       PRES   REMARKS
BRADLEY INTL   MOSUNNY   86  60  41 VRB6      30.17F
HARTFORD       MOSUNNY   85  59  41 VRB5      30.17F
DANBURY        MOSUNNY   81  62  52 VRB6      30.21F
WTRBRY/OXFORD  MOSUNNY   81  63  54 W6        30.24F
BRIDGEPORT     MOSUNNY   82  62  50 SW9       30.20F
MERIDEN        MOSUNNY   84  63  49 VRB5      30.19F
NEW HAVEN      MOSUNNY   81  61  50 S6        30.21F
CHESTER        FAIR      81  63  54 SW8       30.22F
GROTON         SUNNY     75  60  59 S8        30.21F
WILLIMANTIC    MOSUNNY   84  58  40 CALM      30.19F

 IN RI

CITY           SKY/WX    TMP DP  RH WIND       PRES   REMARKS
PROVIDENCE     PTSUNNY   84  57  39 W7        30.20F
BLOCK ISLAND   SUNNY     75  61  60 SW13      30.24S
WESTERLY       SUNNY     79  59  50 W10       30.22F

 IN MA

CITY           SKY/WX    TMP DP  RH WIND       PRES   REMARKS
BOSTON         MOSUNNY   78  62  57 E9        30.19F
WORCESTER      SUNNY     78  55  44 SW7       30.22F
WESTFIELD      SUNNY     85  64  49 SE7       30.17
PROVINCETOWN   SUNNY     79  57  47 SW7       30.21S
NANTUCKET      SUNNY     72  58  61 SW8       30.23S
$$

ANZ330-335-338-340-345-350-353-355-121800-
COASTAL MARINE OBSERVATIONS


STATION/POSITION TIME  SKY/WX   TEMP    WIND        PRES    VSBY  WAVE
                                AIR SEA DIR/SP/G                  HT/PER
                 (UTC)          (F)     (DEG/KT/KT) (MB)    (MI)  (FT/S)
NY HARB ENTRANCE NOT AVBL
4S FIRE IS       1600               71                N/A           2/ 6
23SW MTP         1700            70 69              1023.4          2/ 7
HUDSON CANYON    1700            70 72   80/  6/  8 1023.9          2/ 7
EXECUTION ROCKS  1700            77 68  190/  6/  8   N/A
WESTERN LI SOUND 1700            74      70/  4/  4   N/A           1
CENTRAL LI SOUND 1600            74 73   CALM  /  2   N/A           1
EASTERN LI SOUND 1600            70 66  200/  2/  4   N/A
ROBBINS REEF     1700            71     180/ 18/ 19   N/A
$$


>>>>>>>>>>>>>>>>>>>>>>>>>>>> KEY <<<<<<<<<<<<<<<<<<<<<<<<<<<
>                                                          <
>     SKY/WX - SKY CONDITION/PRESENT WEATHER               <
>     TMP    - TEMPERATURE IN FAHRENHEIT                   <
>     DP     - DEWPOINT IN FAHRENHEIT                      <
>     RH     - RELATIVE HUMIDITY IN PERCENT                <
>     WIND   - DIRECTION AND SPEED IN MPH                  <
>     PRES   - MEAN SEA LEVEL PRESSURE IN INCHES OF HG     <
>     WCI    - WIND CHILL INDEX                            <
>     VSB    - VISIBILITY IN MILES                         <
>     HX     - HEAT INDEX                                  <
>     TC     - TEMPERATURE IN CELSIUS                      <
>     VRB    - VARIABLE WIND DIRECTION                     <
>                                                          <
>>>>>>>>>>>>>>>>>>>>>>>>>>>> KEY <<<<<<<<<<<<<<<<<<<<<<<<<<<




USA.gov is the U.S. government's official web portal to all federal, state and local government web resources and services.